TIBA-1 (44800 NORAD) Tracking and Keplerian Element Data

This shows tracking and keplerian element data for the satellite.

Feedback or suggestion? Click here.




ElementValue
Catalog44800
NameTIBA-1
Epoch Orbit134
Epoch Day93.62757956
Epoch Year2020
RAAN37.5355
Inclination0.0111
Eccentricity0.0002126
Argument of Perigee333.8
Mean Anonmoly81.5032
Mean Motion1.00271255
Decay Rate1.48E-06
L11 44800U 19080A 20093.62757956 .00000148 00000-0 00000-0 0 9998
L22 44800 0.0111 37.5355 0002126 333.8000 81.5032 1.00271255 1347

Live tracking and technical data element details for TIBA-1 (NORAD 44800). TIBA-1 can be tracked NOW for your location showing map with azimuth and elevation plus other details from your city location.

Track the satellite on the map from your city or location and see movement details for azimuth, elevation, latitude, longitude, range, height, and movement on the map or in text.







IsCatalogInMostPopularTable: catalog: 44800, numindb: 34
Update: records affected: 1



GetName: 44800 TIBA-1

Hit Count: updated at: Mon, 06 Apr 2020 16:18:37 GMT